Tracking 20083 objects as of 9-Dec-2019
HD Live streaming from Space Station
objects crossing your sky now

FENGYUN 1C DEB

Track FENGYUN 1C DEB now!
10-day predictions


NORAD ID: 32209
Int'l Code: 1999-025CVF
Perigee: 853.1 km
Apogee: 1,374.4 km
Inclination: 99.4 °
Period: 107.4 minutes
Semi major axis: 7484 km
RCS: 0.0093 m2 (small)
Launch date: May 10, 1999
Source: People's Republic of China (PRC)
Launch site: Taiyaun Space Center, China (TSC)

Note: This is SATELLITE DEBRIS
aabbcc
Your satellite tracking list
Your tracking list is empty




NASA's NSSDC Master Catalog

Two Line Element Set (TLE):
1 32209U 99025CVF 19341.91789701 +.00000000 +00000-0 +48619-4 0  9993
2 32209 099.4161 045.9845 0348287 079.4891 284.5277 13.40714634604922
Source of the keplerian elements: AFSPC